Date String (YYYY-MM-DD hh:mm:ss) UTC,Instrument flags,absolute air pressure of the measurement (hPa),sample flow rate (lpm),inlet stack bypass flow (lpm),air temperature of the measurement (°C),ambient temperature measured by the external sensor (°C),aerosol sample conditioner tube jacket temperature (°C),OPC LED temperature (°C),internal box temperature (°C),relative humidity of the measurement (%),span deviation,mass concentration of particles derived from Lorenz-Mie calculation of OPC scattering (μg/m³),mass concentration of particles derived from Lorenz-Mie calculation of OPC scattering (μg/m³),mass concentration of particles derived from Lorenz-Mie calculation of OPC scattering (μg/m³)
DateTimeUTC,F1_M11,P_M11,Q1_M11,Q2_M11,T1_M11,T2_M11,T3_M11,T4_M11,T5_M11,U1_M11,ZSPAN_M11,X0_M11,X2_M11,X1_M11
2024-04-15 22:00:00,SystemResetWarning,0812.2,5.00,000.00,024.6,022.7,000.0,033.2,026.1,006.2,0000.0,0012.78,0003.53,0001.83
2024-04-15 22:01:00,SystemResetWarning,0812.2,5.00,000.00,024.6,023.1,000.0,033.1,026.3,006.7,0000.0,0013.09,0003.53,0001.85
2024-04-15 22:02:00,SystemResetWarning,0812.2,4.99,000.00,024.7,023.4,000.0,033.1,026.5,007.0,0000.0,0013.50,0003.56,0001.84
2024-04-15 22:03:00,SystemResetWarning,0812.1,5.00,000.00,024.8,023.7,000.0,033.1,026.6,007.3,0000.0,0013.20,0003.51,0001.82
2024-04-15 22:04:00,SystemResetWarning,0812.2,5.00,000.00,024.9,023.9,000.0,033.1,026.7,007.2,0000.0,0011.65,0003.43,0001.81
2024-04-15 22:05:00,SystemResetWarning,0812.2,5.00,000.00,025.0,024.1,000.0,033.2,026.9,007.0,0000.0,0010.75,0003.33,0001.77
2024-04-15 22:06:00,SystemResetWarning,0812.2,5.00,000.00,025.0,024.3,000.0,033.2,027.0,007.0,0000.0,0010.48,0003.31,0001.76
2024-04-15 22:07:00,SystemResetWarning,0812.3,5.00,000.00,025.1,024.5,000.0,033.2,027.1,006.6,0000.0,0010.48,0003.31,0001.73
2024-04-15 22:08:00,SystemResetWarning,0812.3,5.01,000.00,025.2,024.6,000.0,033.3,027.2,006.2,0000.0,0010.22,0003.31,0001.72
2024-04-15 22:09:00,SystemResetWarning,0812.4,5.00,000.00,025.3,024.8,000.0,033.3,027.3,006.0,0000.0,0009.82,0003.28,0001.70
2024-04-15 22:10:00,SystemResetWarning,0812.4,4.98,000.00,025.4,024.9,000.0,033.3,027.3,006.2,0000.0,0010.01,0003.32,0001.71
2024-04-15 22:11:00,SystemResetWarning,0812.4,4.99,000.00,025.4,025.0,000.0,033.4,027.4,006.1,0000.0,0009.94,0003.33,0001.69
2024-04-15 22:12:00,SystemResetWarning,0812.4,5.00,000.00,025.4,024.4,000.0,033.5,026.9,006.1,0000.0,0010.52,0003.28,0001.68
2024-04-15 22:13:00,SystemResetWarning,0812.4,5.00,000.00,025.1,022.3,000.0,033.5,025.8,006.1,0000.0,0010.33,0003.27,0001.69
2024-04-15 22:14:00,SystemResetWarning,0812.4,5.02,000.00,024.7,021.7,000.0,033.5,025.4,006.2,0000.0,0010.27,0003.29,0001.69
2024-04-15 22:15:00,SystemResetWarning,0812.4,5.00,000.00,024.6,022.1,000.0,033.4,025.5,006.3,0000.0,0010.28,0003.29,0001.71
2024-04-15 22:16:00,SystemResetWarning,0812.5,4.99,000.00,024.6,022.5,000.0,033.3,025.9,006.5,0000.0,0011.08,0003.33,0001.74
2024-04-15 22:17:00,SystemResetWarning,0812.5,5.00,000.00,024.7,022.9,000.0,033.2,026.2,007.0,0000.0,0011.13,0003.35,0001.75
2024-04-15 22:18:00,SystemResetWarning,0812.6,5.00,000.00,024.7,023.2,000.0,033.2,026.4,006.8,0000.0,0010.88,0003.34,0001.77
2024-04-15 22:19:00,SystemResetWarning,0812.6,5.00,000.00,024.8,023.5,000.0,033.2,026.6,006.6,0000.0,0010.66,0003.35,0001.77
2024-04-15 22:20:00,SystemResetWarning,0812.7,5.00,000.00,024.9,023.8,000.0,033.2,026.7,007.0,0000.0,0010.60,0003.39,0001.77
2024-04-15 22:21:00,SystemResetWarning,0812.7,4.99,000.00,025.0,024.1,000.0,033.2,026.9,006.6,0000.0,0010.57,0003.40,0001.75
2024-04-15 22:22:00,SystemResetWarning,0812.7,4.99,000.00,025.1,024.3,000.0,033.2,027.0,006.9,0000.0,0010.66,0003.43,0001.74
2024-04-15 22:23:00,SystemResetWarning,0812.8,5.00,000.00,025.1,024.5,000.0,033.2,027.1,007.0,0000.0,0009.89,0003.44,0001.74
2024-04-15 22:24:00,SystemResetWarning,0812.8,5.00,000.00,025.2,024.6,000.0,033.3,027.2,006.6,0000.0,0009.80,0003.43,0001.74
2024-04-15 22:25:00,SystemResetWarning,0812.8,5.00,000.00,025.3,024.8,000.0,033.3,027.3,006.8,0000.0,0009.80,0003.43,0001.73
2024-04-15 22:26:00,SystemResetWarning,0812.9,5.00,000.00,025.4,024.7,000.0,033.4,027.2,006.9,0000.0,0009.69,0003.42,0001.73
2024-04-15 22:27:00,SystemResetWarning,0813.0,4.99,000.00,025.2,022.9,000.0,033.4,026.1,007.1,0000.0,0009.03,0003.37,0001.70
2024-04-15 22:28:00,SystemResetWarning,0812.8,5.02,000.00,024.7,021.4,000.0,033.4,025.2,007.6,0000.0,0008.82,0003.34,0001.67
2024-04-15 22:29:00,SystemResetWarning,0812.9,5.00,000.00,024.5,021.7,000.0,033.4,025.2,008.4,0000.0,0009.99,0003.35,0001.68
2024-04-15 22:30:00,SystemResetWarning,0813.0,5.00,000.00,024.4,022.1,000.0,033.2,025.5,008.7,0000.0,0011.32,0003.38,0001.70
2024-04-15 22:31:00,SystemResetWarning,0812.9,5.00,000.00,024.5,022.5,000.0,033.1,025.9,008.8,0000.0,0011.84,0003.35,0001.71
2024-04-15 22:32:00,SystemResetWarning,0813.0,5.00,000.00,024.6,022.9,000.0,033.1,026.2,008.6,0000.0,0013.41,0003.32,0001.73
2024-04-15 22:33:00,SystemResetWarning,0813.0,5.00,000.00,024.6,023.3,000.0,033.0,026.4,008.7,0000.0,0013.91,0003.33,0001.77
2024-04-15 22:34:00,SystemResetWarning,0813.0,5.00,000.00,024.7,023.6,000.0,033.0,026.5,008.7,0000.0,0013.89,0003.34,0001.80
2024-04-15 22:35:00,SystemResetWarning,0813.0,5.01,000.00,024.8,023.8,000.0,033.0,026.6,008.8,0000.0,0013.69,0003.37,0001.81
2024-04-15 22:36:00,SystemResetWarning,0813.0,5.01,000.00,024.8,024.0,000.0,033.1,026.7,008.9,0000.0,0014.60,0003.41,0001.83
2024-04-15 22:37:00,SystemResetWarning,0812.9,4.99,000.00,024.9,024.2,000.0,033.1,026.8,008.9,0000.0,0015.68,0003.48,0001.85
2024-04-15 22:38:00,SystemResetWarning,0812.8,5.00,000.00,025.0,024.4,000.0,033.1,026.9,009.2,0000.0,0017.86,0003.58,0001.88
2024-04-15 22:39:00,SystemResetWarning,0813.0,5.00,000.00,025.1,024.5,000.0,033.1,027.0,009.2,0000.0,0023.06,0003.78,0001.92
2024-04-15 22:40:00,SystemResetWarning,0812.9,5.00,000.00,025.1,024.6,000.0,033.1,027.1,009.4,0000.0,0022.80,0003.88,0001.93
2024-04-15 22:41:00,SystemResetWarning,0813.0,5.00,000.00,025.2,024.7,000.0,033.2,027.1,009.6,0000.0,0024.34,0004.00,0001.94
2024-04-15 22:42:00,SystemResetWarning,0813.0,5.00,000.00,025.3,024.8,000.0,033.2,027.2,009.7,0000.0,0027.37,0004.23,0001.96
2024-04-15 22:43:00,SystemResetWarning,0813.1,5.00,000.00,025.3,024.7,000.0,033.3,027.1,009.9,0000.0,0028.03,0004.35,0001.95
2024-04-15 22:44:00,SystemResetWarning,0813.2,4.98,000.00,025.1,022.8,000.0,033.3,026.1,010.2,0000.0,0030.24,0004.47,0001.93
2024-04-15 22:45:00,SystemResetWarning,0813.1,5.02,000.00,024.7,022.0,000.0,033.4,025.6,010.5,0000.0,0032.45,0004.60,0001.94
2024-04-15 22:46:00,SystemResetWarning,0813.1,5.00,000.00,024.6,022.3,000.0,033.3,025.6,010.8,0000.0,0035.78,0004.76,0001.93
2024-04-15 22:47:00,SystemResetWarning,0813.3,5.00,000.00,024.6,022.6,000.0,033.2,025.9,011.1,0000.0,0041.01,0004.99,0001.94
2024-04-15 22:48:00,SystemResetWarning,0813.4,5.01,000.00,024.7,022.9,000.0,033.1,026.2,011.3,0000.0,0042.72,0005.14,0001.97
2024-04-15 22:49:00,SystemResetWarning,0813.5,4.99,000.00,024.7,023.3,000.0,033.1,026.4,011.4,0000.0,0044.49,0005.32,0001.99
2024-04-15 22:50:00,SystemResetWarning,0813.6,4.99,000.00,024.8,023.5,000.0,033.1,026.5,011.5,0000.0,0043.53,0005.44,0002.00
2024-04-15 22:51:00,SystemResetWarning,0813.8,5.00,000.00,024.8,023.8,000.0,033.1,026.6,011.6,0000.0,0045.75,0005.50,0002.01
2024-04-15 22:52:00,SystemResetWarning,0814.0,5.00,000.00,024.9,024.0,000.0,033.1,026.7,011.8,0000.0,0046.58,0005.47,0002.00
2024-04-15 22:53:00,SystemResetWarning,0813.9,5.00,000.00,025.0,024.1,000.0,033.1,026.8,012.0,0000.0,0044.96,0005.30,0001.97
2024-04-15 22:54:00,SystemResetWarning,0814.1,5.01,000.00,025.0,024.3,000.0,033.1,026.9,012.1,0000.0,0046.05,0005.29,0001.97
2024-04-15 22:55:00,SystemResetWarning,0814.2,5.01,000.00,025.1,024.4,000.0,033.1,026.9,012.1,0000.0,0044.98,0005.25,0001.97
2024-04-15 22:56:00,SystemResetWarning,0814.3,5.00,000.00,025.1,024.5,000.0,033.2,026.9,012.2,0000.0,0044.76,0005.24,0001.96
2024-04-15 22:57:00,SystemResetWarning,0814.5,4.99,000.00,025.2,024.6,000.0,033.2,027.1,012.3,0000.0,0042.58,0005.15,0001.93
2024-04-15 22:58:00,SystemResetWarning,0814.5,4.99,000.00,025.2,024.7,000.0,033.2,027.1,012.5,0000.0,0038.07,0004.97,0001.91
2024-04-15 22:59:00,SystemResetWarning,0814.6,4.99,000.00,025.3,024.7,000.0,033.3,027.1,012.9,0000.0,0037.08,0004.87,0001.89
